Weather in Bemyzh

Russia / Udmurt Republic     56°08′49″N   51°43′15″E
temp.,
°C
wind,
m/s
gust,
m/s
humid.,
%
clouds,
%
prec.,
mm/h
press.,
hPa
HPBL,
m
7 may, fri
fri701:00+9s3689100 0.0 1016106
04:00+8s3591100 0.0 101673
07:00+11s4117469 0.0 1016293
10:00+16ssw61052100 0.0 10161002
13:00+18ssw71042100 0.0 10152047
16:00+18ssw61047100 0.0 10152394
19:00+15s4955100 0.0 1014346
22:00+11s3768100 0.0 1015132
8 may, sat
sat801:00+10ssw2573100 0.0 1015104
04:00+9w1179100 0.0 101611
07:00+11n2285100 0.0 1017206
10:00+14s1272100 0.0 1017617
13:00+16wsw2358100 0.3 1017999
16:00+17ssw235680 2.1 10161105
19:00+16sse116712 0.5 101615
22:00+13sse22725 0.5 101629
9 may, sun
sun901:00+10se34805 0.0 101662
04:00+9se368285 0.0 101693
07:00+12se487664 0.0 1016236
10:00+18sse57543 0.0 1015909
13:00+21s67419 0.0 10152238
16:00+21s464052 0.0 10142244
19:00+18sse2255100 0.0 101527
22:00+15se2259100 0.0 101617
10 may, mon
mon1001:00+15se3561100 0.0 101676
04:00+14ssw2261100 0.0 101728
07:00+14nw2377100 0.0 1019103
10:00+16nnw3474100 0.0 1021415
13:00+16nnw4572100 0.0 1022711
16:00+13nnw6785100 0.1 1024448
19:00+11n5983100 0.0 1025525
22:00+9n598417 0.0 1026653
11 may, tue
tue1101:00+6n411921 0.0 1027469
04:00+5n411905 0.0 1028358
07:00+7nne512660 0.0 1029518
10:00+12nne57442 0.0 10291014
13:00+16nne56355 0.0 10291496
16:00+17nne45355 0.0 10281591
19:00+14nne35525 0.0 1029116
22:00+10nne226148 0.0 102917